[[{"header":{"parameterUnit":"m.s-1","parameterCategory":1,"la1":30.2991,"la2":30.254,"lo1":-89.0895,"lo2":-89.0444,"dy":0.0017,"dx":0.0017,"nx":28,"ny":28,"refTime":"2025-03-07T03:00:00:Z","depth":0,"parameterNumber":2,"parameterNumberName":"U-component_of_WINDS"},"data":[0,0,0,0,0,0,0,0,0,0,0,0,0,0,0,0,0,0,0,0,0,0,0,0,0,0,0,0,0,0,0,0,0,0,0,0,0,0,0,0,0,0,0,0,0,0,0,0,0,0,0,0,0,0,0,0,0,0,2.0548,2.055,0,2.0678,2.068,2.0681,2.0645,2.0642,2.0639,2.0637,2.0776,2.0782,2.0789,0,0,0,0,0,0,0,0,0,0,0,0,0,2.0271,2.0276,2.0548,2.055,2.0551,2.0678,2.068,2.0682,2.0645,2.0642,2.0639,2.0635,2.0774,2.0782,2.0789,0,0,0,0,0,0,0,0,0,0,0,0,0,2.0396,2.0278,2.0548,2.0548,2.0549,2.0678,2.068,2.0682,2.0646,2.0642,2.0638,2.0634,2.0772,2.0781,2.079,2.0928,0,0,2.0819,2.0823,0,0,0,0,0,0,0,0,2.0389,2.0406,2.0546,2.0548,2.055,2.0641,2.0634,2.0765,2.0647,2.0609,2.0637,2.0632,2.0735,2.0747,2.0781,2.0935,2.0941,2.082,2.0825,2.0829,2.0832,0,0,0,0,0,0,0,2.038,2.04,2.06,2.0549,2.0551,2.0543,2.0556,2.0658,2.0693,2.0612,2.061,2.0626,2.0735,2.0772,2.0784,2.0943,2.0819,2.0828,2.0833,2.0837,2.1213,2.1218,0,0,0,0,0,0,2.0369,2.0393,2.0596,2.0604,2.0458,2.0551,2.0566,2.0616,2.0692,2.07,2.0629,2.0623,2.0758,2.0773,2.0788,2.0952,2.0829,2.0838,2.0843,2.1209,2.1214,2.1219,0,0,0,0,0,0,2.0364,2.0388,2.059,2.0498,2.0523,2.056,2.0617,2.0621,2.0657,2.0704,2.0711,2.0659,2.0755,2.0775,2.0892,2.0957,2.0842,2.0851,2.1204,2.1211,2.1217,2.1283,0,0,0,0,0,0,2.0356,2.0386,2.0438,2.0499,2.0528,2.0691,2.0621,2.0626,2.0672,2.0666,2.0735,2.0742,2.0754,2.0879,2.0902,2.0968,2.0858,2.1198,2.1207,2.1215,2.1275,2.1291,2.1305,0,0,0,0,0,2.0346,2.0454,2.0441,2.0466,2.0594,2.0695,2.0712,2.0721,2.0678,2.0731,2.0761,2.074,2.0946,2.0891,2.0917,2.0986,2.1194,2.1204,2.1214,2.1269,2.1288,2.1304,0,0,0,0,0,0,2.0402,2.0462,2.0448,2.0579,2.0632,2.0689,2.0756,2.0741,2.081,2.0802,2.0812,2.0827,2.0947,2.0979,2.0916,2.1122,2.1064,2.108,2.1097,2.1116,2.113,2.112,2.0866,0,0,0,0,0,2.0429,2.0505,2.0554,2.0664,2.0691,2.0719,2.0764,2.0765,2.0822,2.0845,2.0884,2.0941,2.1018,2.1069,2.1143,2.128,2.1293,2.134,2.1355,2.1367,2.138,2.1452,2.1473,2.1252,2.1252,2.1251,0,0,2.0487,2.0529,2.0577,2.0676,2.0718,2.0797,2.0738,2.0825,2.0884,2.0859,2.097,2.1001,2.1065,2.1192,2.125,2.1222,2.1444,2.1379,2.1389,2.1395,2.1465,2.1486,2.1504,2.1258,2.1257,2.1256,0,0,2.0632,2.0672,2.0766,2.0808,2.087,2.0887,2.091,2.0969,2.0987,2.1099,2.108,2.1151,2.1285,2.133,2.1371,2.153,2.1513,2.1554,2.1631,2.1701,2.1718,2.1734,2.1788,2.1808,2.1567,2.1567,2.1567,0,2.0696,2.0813,2.0817,2.0905,2.0948,2.0926,2.1022,2.1063,2.1148,2.1179,2.1146,2.131,2.1352,2.1488,2.1526,2.1561,2.1587,2.1546,2.1715,2.1731,2.1745,2.1797,2.1818,2.1572,2.1571,2.1571,2.157,0,2.0887,2.0969,2.1038,2.1116,2.1168,2.126,2.1279,2.1331,2.1328,2.1348,2.1462,2.1511,2.1592,2.1625,2.1625,2.1761,2.1741,2.1712,2.1653,2.1771,2.182,2.184,2.1578,2.1576,2.1575,2.1574,0,0,2.1073,2.1149,2.1175,2.1209,2.1274,2.1338,2.1428,2.1505,2.1549,2.1608,2.1683,2.1795,2.1767,2.1813,2.1817,2.1879,2.1999,2.1842,2.1844,2.1868,2.2149,2.217,2.2193,2.1988,2.1992,2.1995,2.2143,0,2.1221,2.1377,2.1383,2.1525,2.1599,2.1578,2.1656,2.1705,2.1727,2.1794,2.1818,2.1896,2.1855,2.1882,2.1942,2.1971,2.2055,2.1961,2.2058,2.2062,2.2041,2.2219,2.2242,2.2379,2.2163,2.2166,2.2168,0,2.1416,2.1476,2.1626,2.1678,2.1709,2.1779,2.1849,2.1913,2.1968,2.1979,2.2029,2.2023,2.2116,2.2054,2.2181,2.2116,2.2157,2.2177,2.2182,2.2191,2.2121,2.2231,2.2423,2.2443,2.2199,2.2197,2.2194,0,2.1533,2.1653,2.1756,2.1786,2.1851,2.19,2.1929,2.198,2.2025,2.2087,2.2116,2.2189,2.2229,2.2286,2.23,2.2254,2.2426,2.2366,2.2438,2.2437,2.2475,2.2472,2.2675,2.2503,2.2503,2.2502,2.2502,0,2.1698,2.1789,2.1809,2.1873,2.1975,2.1981,2.2081,2.2108,2.2152,2.2221,2.2209,2.2274,2.2289,2.2357,2.2369,2.2471,2.249,2.2501,2.2503,2.2502,2.25,2.2528,2.2518,2.2508,2.2506,2.2505,2.2504,0,2.1846,2.1863,2.1974,2.2024,2.2039,2.2112,2.2155,2.2216,2.2235,2.2322,2.2343,2.2374,2.2453,2.2472,2.2568,2.2576,2.2696,2.269,2.2676,2.2675,2.2745,2.2737,2.2972,2.3002,2.2812,2.2813,2.2815,0,2.1949,2.2018,2.2075,2.2118,2.2149,2.2221,2.2266,2.2274,2.2322,2.2388,2.2441,2.2518,2.258,2.2708,2.2739,2.2812,2.2806,2.2883,2.2817,2.2812,2.2805,2.28,2.2806,2.2896,2.2898,2.2899,2.2901,0,2.213,2.2134,2.2198,2.2265,2.2318,2.2372,2.2423,2.2461,2.2476,2.253,2.2609,2.2657,2.2753,2.2829,2.2901,2.2933,2.292,2.2921,2.2941,2.294,2.2928,2.2933,2.2709,2.2916,2.2914,2.2913,2.2912,2.2912,2.2258,2.2317,2.2365,2.2436,2.2475,2.2522,2.2581,2.2606,2.2672,2.2748,2.275,2.2836,2.2887,2.2982,2.3017,2.3085,2.3062,2.3092,2.3099,2.3106,2.3111,2.2918,2.3099,2.3099,2.3098,2.3098,2.3098,0,2.2436,2.2465,2.253,2.26,2.2657,2.2636,2.2692,2.274,2.2815,2.2863,2.2923,2.3013,2.3087,2.3123,2.3195,2.3243,2.3238,2.3261,2.3257,2.3264,2.3128,2.3103,2.3263,2.3263,2.3263,2.3263,2.3263,2.3263,2.2535,2.2634,2.2643,2.276,2.2789,2.2871,2.2904,2.2948,2.2985,2.3086,2.3145,2.3167,2.3211,2.3286,2.3352,2.3361,2.3388,2.3414,2.3419,2.3291,2.3274,2.3258,2.3234,2.342,2.342,2.3549,2.355,2.3551]},{"header":{"parameterUnit":"m.s-1","parameterCategory":1,"la1":30.2991,"la2":30.254,"lo1":-89.0895,"lo2":-89.0444,"dy":0.0017,"dx":0.0017,"nx":28,"ny":28,"refTime":"2025-03-07T03:00:00:Z","depth":0,"parameterNumber":3,"parameterNumberName":"V-component_of_WINDS"},"data":[0,0,0,0,0,0,0,0,0,0,0,0,0,0,0,0,0,0,0,0,0,0,0,0,0,0,0,0,0,0,0,0,0,0,0,0,0,0,0,0,0,0,0,0,0,0,0,0,0,0,0,0,0,0,0,0,0,0,3.0777,3.0778,0,3.0791,3.0791,3.0792,3.076,3.0759,3.0758,3.0757,3.0769,3.077,3.0772,0,0,0,0,0,0,0,0,0,0,0,0,0,3.072,3.0721,3.0777,3.0778,3.0778,3.0791,3.0791,3.0792,3.076,3.0759,3.0757,3.0756,3.0769,3.077,3.0772,0,0,0,0,0,0,0,0,0,0,0,0,0,3.074,3.0721,3.0777,3.0763,3.0762,3.0791,3.0791,3.0792,3.076,3.0759,3.0757,3.0756,3.0768,3.077,3.0772,3.0814,0,0,3.0778,3.0779,0,0,0,0,0,0,0,0,3.0739,3.0743,3.0765,3.0764,3.0763,3.0772,3.0776,3.0799,3.076,3.0761,3.0757,3.0755,3.0771,3.0773,3.0779,3.0815,3.0816,3.0778,3.0779,3.078,3.0781,0,0,0,0,0,0,0,3.0738,3.0742,3.0783,3.0766,3.0764,3.0755,3.0757,3.078,3.0774,3.0761,3.0758,3.0761,3.077,3.0777,3.0779,3.0816,3.0778,3.078,3.0781,3.0782,3.0884,3.0886,0,0,0,0,0,0,3.0739,3.0741,3.0782,3.0783,3.0747,3.0758,3.0759,3.0771,3.0774,3.0773,3.0762,3.0759,3.0774,3.0777,3.0779,3.0827,3.078,3.0782,3.0783,3.0883,3.0885,3.0886,0,0,0,0,0,0,3.0737,3.0743,3.0782,3.0761,3.0766,3.076,3.0774,3.0772,3.0778,3.0775,3.0774,3.077,3.0773,3.0776,3.0805,3.0827,3.0783,3.0784,3.0881,3.0883,3.0886,3.0924,0,0,0,0,0,0,3.0736,3.0742,3.0759,3.0762,3.0767,3.0809,3.0775,3.0773,3.0782,3.0779,3.0782,3.0781,3.0772,3.0803,3.0807,3.0829,3.0786,3.0879,3.0882,3.0885,3.0921,3.0928,3.0933,0,0,0,0,0,3.0734,3.077,3.076,3.0766,3.0788,3.081,3.0813,3.0803,3.0784,3.08,3.0798,3.0781,3.0824,3.0806,3.0811,3.0833,3.0878,3.0881,3.0885,3.0918,3.0926,3.0933,0,0,0,0,0,0,3.077,3.077,3.076,3.0798,3.0804,3.0805,3.0825,3.0812,3.0823,3.082,3.0806,3.0807,3.0838,3.0839,3.0818,3.0873,3.0848,3.0852,3.0871,3.0879,3.0885,3.0883,3.0788,0,0,0,0,0,3.0782,3.0801,3.08,3.0834,3.0837,3.0831,3.084,3.0831,3.0837,3.084,3.0839,3.0845,3.086,3.087,3.0883,3.0921,3.092,3.0939,3.0945,3.095,3.0954,3.0972,3.0979,3.0898,3.0898,3.0898,0,0,3.0808,3.0811,3.0823,3.0841,3.0845,3.0863,3.0833,3.0855,3.0867,3.0843,3.0869,3.0869,3.0875,3.0908,3.0923,3.091,3.0976,3.0955,3.0959,3.096,3.0976,3.0984,3.0991,3.0901,3.09,3.09,0,0,3.0864,3.0869,3.0896,3.09,3.0906,3.0901,3.0908,3.091,3.0909,3.0936,3.0917,3.0932,3.0958,3.0962,3.0967,3.1023,3.1007,3.1027,3.1059,3.1077,3.1083,3.1088,3.1106,3.1113,3.1031,3.1032,3.1032,0,3.0895,3.0923,3.0911,3.0933,3.094,3.0919,3.0945,3.095,3.096,3.0965,3.0951,3.0981,3.0984,3.1016,3.103,3.1036,3.1041,3.1026,3.1083,3.1089,3.1094,3.111,3.1117,3.1034,3.1034,3.1033,3.1033,0,3.0959,3.0978,3.0999,3.1009,3.1019,3.1043,3.1034,3.1045,3.1035,3.1032,3.1058,3.106,3.1072,3.1079,3.107,3.111,3.1102,3.1086,3.1059,3.1104,3.1119,3.1125,3.1037,3.1036,3.1036,3.1035,0,0,3.1038,3.104,3.1048,3.1051,3.1056,3.107,3.1092,3.1104,3.1113,3.1121,3.1138,3.1159,3.1144,3.115,3.1141,3.1157,3.1197,3.1138,3.1138,3.1147,3.1239,3.125,3.1257,3.1188,3.1189,3.119,3.1238,0,3.1091,3.113,3.1119,3.1157,3.1173,3.1152,3.1171,3.1176,3.1172,3.1185,3.1181,3.1196,3.1175,3.1178,3.1193,3.1189,3.1215,3.1186,3.1202,3.1202,3.1199,3.1266,3.1278,3.1323,3.1244,3.1245,3.1246,0,3.1159,3.1168,3.1207,3.1207,3.1213,3.1231,3.124,3.1253,3.1256,3.1252,3.1259,3.1246,3.1266,3.1241,3.1268,3.1248,3.1254,3.1253,3.1254,3.1254,3.1226,3.1265,3.1337,3.1343,3.1255,3.1255,3.1254,0,3.1209,3.1232,3.1258,3.1261,3.1262,3.1275,3.1276,3.1278,3.1285,3.1293,3.1297,3.1307,3.1312,3.132,3.131,3.1293,3.1337,3.1312,3.1334,3.1334,3.1343,3.1342,3.1414,3.135,3.135,3.1349,3.1349,0,3.1269,3.1293,3.128,3.1296,3.1322,3.1309,3.1335,3.1333,3.1335,3.1349,3.1332,3.1346,3.1332,3.1344,3.1336,3.1358,3.1361,3.1358,3.1355,3.1358,3.1359,3.1361,3.1357,3.1351,3.1351,3.1351,3.135,0,3.133,3.1322,3.1348,3.1347,3.1347,3.1366,3.1364,3.1377,3.1373,3.139,3.1394,3.1386,3.1399,3.139,3.1403,3.1398,3.1426,3.142,3.1425,3.1422,3.1444,3.1441,3.1519,3.1528,3.1459,3.146,3.146,0,3.1367,3.1385,3.1385,3.1393,3.1395,3.1408,3.1415,3.1403,3.1411,3.1415,3.1428,3.144,3.1448,3.1469,3.1464,3.1474,3.1467,3.1493,3.1468,3.147,3.1464,3.1463,3.1464,3.1498,3.1499,3.1499,3.15,0,3.1434,3.1429,3.1439,3.1448,3.1457,3.1464,3.1469,3.1476,3.1464,3.1473,3.1486,3.1492,3.1505,3.1516,3.1524,3.1523,3.1509,3.1508,3.1513,3.1516,3.1517,3.1514,3.1437,3.1506,3.1505,3.1505,3.1505,3.1504,3.1482,3.1496,3.1498,3.151,3.1512,3.1517,3.1529,3.1525,3.1536,3.1545,3.1537,3.1552,3.1554,3.1562,3.1564,3.1574,3.1563,3.1571,3.1573,3.1575,3.1577,3.1517,3.1576,3.1576,3.1576,3.1576,3.1575,0,3.1546,3.1545,3.1557,3.1564,3.1573,3.1559,3.1563,3.1572,3.1585,3.1588,3.1596,3.1609,3.162,3.1615,3.1624,3.1633,3.1627,3.1636,3.1634,3.1634,3.1587,3.1581,3.1641,3.1641,3.1641,3.1641,3.1641,3.1641,3.158,3.1602,3.1597,3.1619,3.1619,3.1633,3.1636,3.164,3.1642,3.1658,3.1666,3.1663,3.1663,3.1671,3.1679,3.1678,3.1681,3.1692,3.1688,3.1644,3.1637,3.1631,3.1625,3.1693,3.1693,3.1733,3.1733,3.1734]}]]